Location: Bakov nad Jizerou
(50.4784°N, 14.9394°E)
Time: 03:34:19
(UTC+00:00)

Cosmos 1727 Rocket - Pass Details

Date: 29 October 2021
Orbit: 960 x 997 km, 82.9° (Epoch: 07 December)

Event Time Altitude Azimuth Distance (km) Brightness Sun altitude
Rises 02:34:00 0° 120° (ESE) 3,693 7.6 -30.8°
Reaches altitude 10° 02:38:51 10° 87° (E) 2,742 7.2 -30.1°
Maximum altitude 02:40:22 11° 73° (ENE) 2,673 7.2 -29.9°
Drops below altitude 10° 02:41:52 10° 58° (ENE) 2,740 7.2 -29.6°
Sets 02:46:42 0° 25° (NNE) 3,685 7.5 -28.9°
